• In Czech Republic
  • List of Countries
  • For 7 days
  • Water Temperature
  • Satellite Maps
  • Weather Map
  • Weather Widgets
  • user-avatar
    Login

    Hourly Weather Leg

    Today, 25 June, Monday

    Time Temperature Precipitation Wind Pressure Humidity
    00:00 +10°C° 0 mm 2 mps 755 mmHg 92%
    01:00 +11°C° 0 mm 1 mps 755 mmHg 92%
    02:00 +10°C° 0 mm 1 mps 755 mmHg 93%
    03:00 +9°C° 0 mm 2 mps 755 mmHg 93%
    04:00 +9°C° 0 mm 2 mps 756 mmHg 94%
    05:00 +12°C° 0 mm 2 mps 756 mmHg 91%
    06:00 +12°C° 0 mm 3 mps 756 mmHg 88%
    07:00 +14°C° 0 mm 3 mps 756 mmHg 85%
    08:00 +16°C° 0.1 mm 3 mps 756 mmHg 79%
    09:00 +17°C° 0.1 mm 4 mps 756 mmHg 74%
    10:00 +19°C° 0.1 mm 4 mps 756 mmHg 69%
    11:00 +19°C° 0.6 mm 4 mps 756 mmHg 68%
    12:00 +19°C° 0.6 mm 4 mps 756 mmHg 68%
    13:00 +20°C° 0.6 mm 4 mps 756 mmHg 67%
    14:00 +19°C° 1.1 mm 3 mps 756 mmHg 69%
    15:00 +19°C° 1.1 mm 3 mps 756 mmHg 70%
    16:00 +19°C° 1.1 mm 3 mps 756 mmHg 71%
    17:00 +18°C° 0.6 mm 2 mps 756 mmHg 75%
    18:00 +18°C° 0.6 mm 2 mps 756 mmHg 78%
    19:00 +18°C° 0.6 mm 1 mps 756 mmHg 81%
    20:00 +16°C° 0 mm 1 mps 756 mmHg 83%
    21:00 +15°C° 0 mm 1 mps 756 mmHg 84%
    22:00 +14°C° 0 mm 1 mps 756 mmHg 85%
    23:00 +14°C° 0 mm 1 mps 756 mmHg 86%

    Tomorrow, 26 June, Tuesday

    Time Temperature Precipitation Wind Pressure Humidity
    00:00 +14°C° 0 mm 2 mps 757 mmHg 86%
    01:00 +14°C° 0 mm 2 mps 757 mmHg 87%
    02:00 +14°C° 0 mm 2 mps 756 mmHg 88%
    03:00 +14°C° 0 mm 2 mps 756 mmHg 89%
    04:00 +14°C° 0 mm 2 mps 756 mmHg 89%
    05:00 +14°C° 0.1 mm 3 mps 756 mmHg 88%
    06:00 +14°C° 0.1 mm 3 mps 757 mmHg 86%
    07:00 +16°C° 0.1 mm 3 mps 757 mmHg 85%
    08:00 +18°C° 0.4 mm 4 mps 757 mmHg 77%
    09:00 +19°C° 0.4 mm 4 mps 757 mmHg 69%
    10:00 +21°C° 0.4 mm 5 mps 756 mmHg 62%
    11:00 +21°C° 0.4 mm 5 mps 756 mmHg 61%
    12:00 +22°C° 0.4 mm 5 mps 756 mmHg 60%
    13:00 +22°C° 0.4 mm 5 mps 756 mmHg 59%
    14:00 +22°C° 0.5 mm 5 mps 756 mmHg 60%
    15:00 +22°C° 0.5 mm 4 mps 756 mmHg 62%
    16:00 +21°C° 0.5 mm 4 mps 755 mmHg 64%
    17:00 +21°C° 0.2 mm 3 mps 756 mmHg 69%
    18:00 +20°C° 0.2 mm 3 mps 756 mmHg 74%
    19:00 +19°C° 0.2 mm 3 mps 756 mmHg 79%
    20:00 +17°C° 0.2 mm 3 mps 756 mmHg 83%
    21:00 +16°C° 0.2 mm 3 mps 756 mmHg 88%
    22:00 +14°C° 0.2 mm 3 mps 757 mmHg 92%
    23:00 +13°C° 0 mm 3 mps 757 mmHg 93%

    Day after tomorrow, 27 June, Wednesday

    Time Temperature Precipitation Wind Pressure Humidity
    00:00 +13°C° 0 mm 3 mps 757 mmHg 94%
    01:00 +12°C° 0 mm 3 mps 757 mmHg 95%
    02:00 +12°C° 0 mm 3 mps 757 mmHg 95%
    03:00 +12°C° 0 mm 3 mps 758 mmHg 96%
    04:00 +12°C° 0 mm 3 mps 758 mmHg 96%
    05:00 +13°C° 0 mm 3 mps 758 mmHg 92%
    06:00 +15°C° 0 mm 4 mps 758 mmHg 89%
    07:00 +17°C° 0 mm 4 mps 758 mmHg 85%
    08:00 +19°C° 0 mm 4 mps 758 mmHg 78%
    09:00 +20°C° 0 mm 5 mps 759 mmHg 72%
    10:00 +22°C° 0 mm 5 mps 759 mmHg 65%
    11:00 +22°C° 0.4 mm 5 mps 759 mmHg 66%
    12:00 +22°C° 0.4 mm 5 mps 759 mmHg 68%
    13:00 +22°C° 0.4 mm 5 mps 759 mmHg 69%
    14:00 +22°C° 0.2 mm 5 mps 758 mmHg 69%
    15:00 +22°C° 0.2 mm 4 mps 758 mmHg 68%
    16:00 +23°C° 0.2 mm 4 mps 758 mmHg 68%
    17:00 +22°C° 0.5 mm 4 mps 758 mmHg 72%
    18:00 +21°C° 0.5 mm 4 mps 758 mmHg 75%
    19:00 +21°C° 0.5 mm 4 mps 758 mmHg 79%
    20:00 +20°C° 0.1 mm 5 mps 758 mmHg 81%
    21:00 +19°C° 0.1 mm 5 mps 758 mmHg 83%
    22:00 +17°C° 0.1 mm 5 mps 758 mmHg 85%
    23:00 +17°C° 0 mm 5 mps 758 mmHg 85%

    28 June, Thursday

    Time Temperature Precipitation Wind Pressure Humidity
    00:00 +17°C° 0 mm 5 mps 757 mmHg 86%
    01:00 +17°C° 0 mm 6 mps 757 mmHg 87%
    02:00 +17°C° 0 mm 6 mps 757 mmHg 87%
    03:00 +17°C° 0 mm 6 mps 756 mmHg 87%
    04:00 +17°C° 0 mm 6 mps 756 mmHg 86%
    05:00 +18°C° 0 mm 7 mps 756 mmHg 83%
    06:00 +20°C° 0 mm 7 mps 756 mmHg 80%
    07:00 +21°C° 0 mm 8 mps 755 mmHg 76%
    08:00 +22°C° 0 mm 8 mps 755 mmHg 73%
    09:00 +23°C° 0 mm 8 mps 755 mmHg 71%
    10:00 +24°C° 0 mm 8 mps 755 mmHg 68%
    11:00 +26°C° 0 mm 8 mps 755 mmHg 65%
    12:00 +27°C° 0 mm 8 mps 754 mmHg 62%
    13:00 +28°C° 0 mm 8 mps 754 mmHg 59%
    14:00 +28°C° 0.5 mm 8 mps 754 mmHg 61%
    15:00 +28°C° 0.5 mm 8 mps 754 mmHg 63%
    16:00 +28°C° 0.5 mm 7 mps 753 mmHg 65%
    17:00 +27°C° 0.9 mm 7 mps 753 mmHg 71%
    18:00 +24°C° 0.9 mm 6 mps 753 mmHg 77%
    19:00 +23°C° 0.9 mm 5 mps 753 mmHg 83%
    20:00 +23°C° 0.2 mm 4 mps 753 mmHg 85%
    21:00 +22°C° 0.2 mm 4 mps 753 mmHg 88%
    22:00 +21°C° 0.2 mm 4 mps 753 mmHg 91%
    23:00 +21°C° 0.5 mm 4 mps 753 mmHg 92%

    29 June, Friday

    Time Temperature Precipitation Wind Pressure Humidity
    00:00 +21°C° 0.5 mm 4 mps 753 mmHg 93%
    01:00 +20°C° 0.5 mm 4 mps 753 mmHg 94%
    02:00 +20°C° 0 mm 4 mps 753 mmHg 95%
    03:00 +20°C° 0 mm 4 mps 753 mmHg 96%
    04:00 +19°C° 0 mm 4 mps 752 mmHg 97%
    05:00 +20°C° 0 mm 4 mps 752 mmHg 95%
    06:00 +21°C° 0 mm 4 mps 752 mmHg 93%
    07:00 +21°C° 0 mm 4 mps 752 mmHg 91%
    08:00 +22°C° 0 mm 4 mps 752 mmHg 87%
    09:00 +25°C° 0 mm 4 mps 752 mmHg 82%
    10:00 +26°C° 0 mm 4 mps 752 mmHg 78%
    11:00 +27°C° 0.3 mm 4 mps 752 mmHg 73%
    12:00 +28°C° 0.3 mm 4 mps 752 mmHg 68%
    13:00 +30°C° 0.3 mm 4 mps 751 mmHg 63%
    14:00 +29°C° 1.2 mm 5 mps 751 mmHg 65%
    15:00 +29°C° 1.2 mm 5 mps 751 mmHg 66%
    16:00 +29°C° 1.2 mm 5 mps 751 mmHg 68%
    17:00 +27°C° 0.6 mm 5 mps 751 mmHg 71%
    18:00 +26°C° 0.6 mm 5 mps 751 mmHg 74%
    19:00 +25°C° 0.6 mm 4 mps 752 mmHg 77%
    20:00 +22°C° 0 mm 5 mps 752 mmHg 79%
    21:00 +20°C° 0 mm 5 mps 752 mmHg 80%
    22:00 +17°C° 0 mm 6 mps 753 mmHg 81%
    23:00 +16°C° 0 mm 5 mps 753 mmHg 82%

    30 June, Saturday

    Time Temperature Precipitation Wind Pressure Humidity
    00:00 +15°C° 0 mm 5 mps 754 mmHg 83%
    01:00 +13°C° 0 mm 5 mps 754 mmHg 84%
    02:00 +13°C° 0 mm 5 mps 755 mmHg 82%
    03:00 +12°C° 0 mm 5 mps 755 mmHg 81%
    04:00 +12°C° 0 mm 5 mps 756 mmHg 79%
    05:00 +13°C° 0 mm 5 mps 756 mmHg 73%
    06:00 +14°C° 0 mm 6 mps 757 mmHg 67%
    07:00 +15°C° 0 mm 6 mps 757 mmHg 61%
    08:00 +16°C° 0 mm 6 mps 757 mmHg 57%
    09:00 +17°C° 0 mm 5 mps 758 mmHg 53%
    10:00 +20°C° 0 mm 5 mps 758 mmHg 49%
    11:00 +21°C° 0 mm 5 mps 758 mmHg 47%
    12:00 +21°C° 0 mm 4 mps 758 mmHg 46%
    13:00 +22°C° 0 mm 4 mps 758 mmHg 45%
    14:00 +23°C° 0 mm 4 mps 758 mmHg 45%
    15:00 +23°C° 0 mm 4 mps 757 mmHg 45%
    16:00 +23°C° 0 mm 4 mps 757 mmHg 46%
    17:00 +22°C° 0 mm 3 mps 757 mmHg 51%
    18:00 +21°C° 0 mm 3 mps 757 mmHg 57%
    19:00 +20°C° 0 mm 2 mps 758 mmHg 62%
    20:00 +18°C° 0 mm 3 mps 758 mmHg 65%
    21:00 +16°C° 0 mm 3 mps 758 mmHg 67%
    22:00 +14°C° 0 mm 3 mps 759 mmHg 69%
    23:00 +13°C° 0 mm 3 mps 759 mmHg 71%
    Show more